Time,TemperatureF,DewpointF,PressureIn,WindDirection,WindDirectionDegrees,WindSpeedMPH,WindSpeedGustMPH,Humidity,HourlyPrecipIn,Conditions,Clouds,dailyrainin,SoftwareType,DateUTC
2013-01-31 00:03:00,33.5,16.4,29.53,North,-999,0.0,0.0,49,0.00,,,0.00,LWC V1.12 B30,2013-01-31 07:03:00,
2013-01-31 00:08:00,33.6,16.5,29.53,North,-999,0.0,0.0,49,0.00,,,0.00,LWC V1.12 B30,2013-01-31 07:08:00,
2013-01-31 00:13:00,33.5,16.4,29.53,North,-999,0.0,0.0,49,0.00,,,0.00,LWC V1.12 B30,2013-01-31 07:13:00,
2013-01-31 00:18:00,33.4,16.8,29.53,North,-999,0.0,0.0,50,0.00,,,0.00,LWC V1.12 B30,2013-01-31 07:18:00,
2013-01-31 00:23:00,33.4,16.3,29.53,North,-999,0.0,0.0,49,0.00,,,0.00,LWC V1.12 B30,2013-01-31 07:23:00,
2013-01-31 00:28:00,33.2,16.6,29.53,North,-999,0.0,0.0,50,0.00,,,0.00,LWC V1.12 B30,2013-01-31 07:28:00,
2013-01-31 00:33:00,33.1,16.5,29.53,North,-999,0.0,0.0,50,0.00,,,0.00,LWC V1.12 B30,2013-01-31 07:33:00,
2013-01-31 00:38:00,33.1,16.5,29.53,North,-999,0.0,0.0,50,0.00,,,0.00,LWC V1.12 B30,2013-01-31 07:38:00,
2013-01-31 00:43:00,33.0,16.4,29.53,North,-999,0.0,0.0,50,0.00,,,0.00,LWC V1.12 B30,2013-01-31 07:43:00,
2013-01-31 00:48:00,32.8,16.2,29.53,North,-999,0.0,0.0,50,0.00,,,0.00,LWC V1.12 B30,2013-01-31 07:48:00,
2013-01-31 00:53:00,32.8,16.2,29.53,North,-999,0.0,0.0,50,0.00,,,0.00,LWC V1.12 B30,2013-01-31 07:53:00,
2013-01-31 00:58:00,32.9,16.8,29.53,North,-999,0.0,0.0,51,0.00,,,0.00,LWC V1.12 B30,2013-01-31 07:58:00,
2013-01-31 01:03:00,32.9,16.8,29.53,North,-999,0.0,0.0,51,0.00,,,0.00,LWC V1.12 B30,2013-01-31 08:03:00,
2013-01-31 01:08:00,32.9,16.8,29.53,North,-999,0.0,0.0,51,0.00,,,0.00,LWC V1.12 B30,2013-01-31 08:08:00,
2013-01-31 01:13:00,32.8,16.7,29.53,North,-999,0.0,0.0,51,0.00,,,0.00,LWC V1.12 B30,2013-01-31 08:13:00,
2013-01-31 01:18:00,32.7,16.6,29.53,North,-999,0.0,0.0,51,0.00,,,0.00,LWC V1.12 B30,2013-01-31 08:18:00,
2013-01-31 01:23:00,32.5,16.4,29.53,North,-999,0.0,0.0,51,0.00,,,0.00,LWC V1.12 B30,2013-01-31 08:23:00,
2013-01-31 01:28:00,32.3,16.7,29.53,North,-999,0.0,0.0,52,0.00,,,0.00,LWC V1.12 B30,2013-01-31 08:28:00,
2013-01-31 01:33:00,32.2,16.6,29.53,North,-999,0.0,0.0,52,0.00,,,0.00,LWC V1.12 B30,2013-01-31 08:33:00,
2013-01-31 01:38:00,32.3,16.7,29.53,North,-999,0.0,0.0,52,0.00,,,0.00,LWC V1.12 B30,2013-01-31 08:38:00,
2013-01-31 01:43:00,32.3,16.7,29.53,North,-999,0.0,0.0,52,0.00,,,0.00,LWC V1.12 B30,2013-01-31 08:43:00,
2013-01-31 01:48:00,32.1,16.5,29.53,North,-999,0.0,0.0,52,0.00,,,0.00,LWC V1.12 B30,2013-01-31 08:48:00,
2013-01-31 01:53:00,31.9,16.3,29.53,North,-999,0.0,0.0,52,0.00,,,0.00,LWC V1.12 B30,2013-01-31 08:53:00,
2013-01-31 01:58:00,32.0,16.8,29.53,North,-999,0.0,0.0,53,0.00,,,0.00,LWC V1.12 B30,2013-01-31 08:58:00,
2013-01-31 02:03:00,32.0,16.4,29.53,North,-999,0.0,0.0,52,0.00,,,0.00,LWC V1.12 B30,2013-01-31 09:03:00,
2013-01-31 02:08:00,31.9,16.7,29.53,North,-999,0.0,0.0,53,0.00,,,0.00,LWC V1.12 B30,2013-01-31 09:08:00,
2013-01-31 02:13:00,32.0,16.8,29.53,North,-999,0.0,0.0,53,0.00,,,0.00,LWC V1.12 B30,2013-01-31 09:13:00,
2013-01-31 02:18:00,32.0,16.8,29.53,North,-999,0.0,0.0,53,0.00,,,0.00,LWC V1.12 B30,2013-01-31 09:18:00,
2013-01-31 02:23:00,31.8,16.6,29.53,North,-999,0.0,0.0,53,0.00,,,0.00,LWC V1.12 B30,2013-01-31 09:23:00,
2013-01-31 02:28:00,31.7,16.5,29.53,North,-999,0.0,0.0,53,0.00,,,0.00,LWC V1.12 B30,2013-01-31 09:28:00,
2013-01-31 02:33:00,31.6,16.5,29.53,North,-999,0.0,0.0,53,0.00,,,0.00,LWC V1.12 B30,2013-01-31 09:33:00,
2013-01-31 02:38:00,31.5,16.4,29.53,North,-999,0.0,0.0,53,0.00,,,0.00,LWC V1.12 B30,2013-01-31 09:38:00,
2013-01-31 02:43:00,31.3,16.6,29.53,North,-999,0.0,0.0,54,0.00,,,0.00,LWC V1.12 B30,2013-01-31 09:43:00,
2013-01-31 02:48:00,31.4,16.7,29.53,North,-999,0.0,0.0,54,0.00,,,0.00,LWC V1.12 B30,2013-01-31 09:48:00,
2013-01-31 02:53:00,31.3,16.6,29.53,North,-999,0.0,0.0,54,0.00,,,0.00,LWC V1.12 B30,2013-01-31 09:53:00,
2013-01-31 02:58:00,31.3,16.6,29.53,North,-999,0.0,0.0,54,0.00,,,0.00,LWC V1.12 B30,2013-01-31 09:58:00,
2013-01-31 03:03:00,31.3,16.6,29.53,North,-999,0.0,0.0,54,0.00,,,0.00,LWC V1.12 B30,2013-01-31 10:03:00,
2013-01-31 03:08:00,31.1,16.4,29.53,North,-999,0.0,0.0,54,0.00,,,0.00,LWC V1.12 B30,2013-01-31 10:08:00,
2013-01-31 03:13:00,31.1,16.4,29.53,North,-999,0.0,0.0,54,0.00,,,0.00,LWC V1.12 B30,2013-01-31 10:13:00,
2013-01-31 03:18:00,31.1,16.8,29.53,North,-999,0.0,0.0,55,0.00,,,0.00,LWC V1.12 B30,2013-01-31 10:18:00,
2013-01-31 03:23:00,31.1,16.8,29.53,North,-999,0.0,0.0,55,0.00,,,0.00,LWC V1.12 B30,2013-01-31 10:23:00,
2013-01-31 03:28:00,31.1,16.4,29.53,North,-999,0.0,0.0,54,0.00,,,0.00,LWC V1.12 B30,2013-01-31 10:28:00,
2013-01-31 03:33:00,31.0,16.3,29.53,North,-999,0.0,0.0,54,0.00,,,0.00,LWC V1.12 B30,2013-01-31 10:33:00,
2013-01-31 03:38:00,30.9,16.2,29.53,North,-999,0.0,0.0,54,0.00,,,0.00,LWC V1.12 B30,2013-01-31 10:38:00,
2013-01-31 03:43:00,30.8,16.6,29.53,North,-999,0.0,0.0,55,0.00,,,0.00,LWC V1.12 B30,2013-01-31 10:43:00,
2013-01-31 03:48:00,30.7,16.5,29.53,North,-999,0.0,0.0,55,0.00,,,0.00,LWC V1.12 B30,2013-01-31 10:48:00,
2013-01-31 03:53:00,30.7,16.5,29.53,North,-999,0.0,0.0,55,0.00,,,0.00,LWC V1.12 B30,2013-01-31 10:53:00,
2013-01-31 03:58:00,30.7,16.5,29.53,North,-999,0.0,0.0,55,0.00,,,0.00,LWC V1.12 B30,2013-01-31 10:58:00,
2013-01-31 04:03:00,30.5,16.3,29.53,North,-999,0.0,0.0,55,0.00,,,0.00,LWC V1.12 B30,2013-01-31 11:03:00,
2013-01-31 04:08:00,30.5,16.3,29.53,North,-999,0.0,0.0,55,0.00,,,0.00,LWC V1.12 B30,2013-01-31 11:08:00,
2013-01-31 04:13:00,30.5,16.3,29.53,North,-999,0.0,0.0,55,0.00,,,0.00,LWC V1.12 B30,2013-01-31 11:13:00,
2013-01-31 04:18:00,30.3,16.1,29.53,North,-999,0.0,0.0,55,0.00,,,0.00,LWC V1.12 B30,2013-01-31 11:18:00,
2013-01-31 04:23:00,30.4,16.6,29.53,North,-999,0.0,0.0,56,0.00,,,0.00,LWC V1.12 B30,2013-01-31 11:23:00,
2013-01-31 04:28:00,30.3,16.5,29.53,North,-999,0.0,0.0,56,0.00,,,0.00,LWC V1.12 B30,2013-01-31 11:28:00,
2013-01-31 04:33:00,30.3,16.5,29.53,North,-999,0.0,0.0,56,0.00,,,0.00,LWC V1.12 B30,2013-01-31 11:33:00,
2013-01-31 04:38:00,30.2,16.4,29.53,North,-999,0.0,0.0,56,0.00,,,0.00,LWC V1.12 B30,2013-01-31 11:38:00,
2013-01-31 04:43:00,30.2,16.4,29.53,North,-999,0.0,0.0,56,0.00,,,0.00,LWC V1.12 B30,2013-01-31 11:43:00,
2013-01-31 04:48:00,30.1,16.3,29.53,North,-999,0.0,0.0,56,0.00,,,0.00,LWC V1.12 B30,2013-01-31 11:48:00,
2013-01-31 04:53:00,30.0,16.2,29.53,North,-999,0.0,0.0,56,0.00,,,0.00,LWC V1.12 B30,2013-01-31 11:53:00,
2013-01-31 04:59:00,29.9,16.1,29.53,North,-999,0.0,0.0,56,0.00,,,0.00,LWC V1.12 B30,2013-01-31 11:59:00,
2013-01-31 05:04:00,29.8,16.0,29.53,North,-999,0.0,0.0,56,0.00,,,0.00,LWC V1.12 B30,2013-01-31 12:04:00,
2013-01-31 05:09:00,29.7,16.4,29.53,North,-999,0.0,0.0,57,0.00,,,0.00,LWC V1.12 B30,2013-01-31 12:09:00,
2013-01-31 05:14:00,29.7,16.4,29.53,North,-999,0.0,0.0,57,0.00,,,0.00,LWC V1.12 B30,2013-01-31 12:14:00,
2013-01-31 05:19:00,29.6,16.3,29.53,North,-999,0.0,0.0,57,0.00,,,0.00,LWC V1.12 B30,2013-01-31 12:19:00,
2013-01-31 05:24:00,29.5,16.2,29.53,North,-999,0.0,0.0,57,0.00,,,0.00,LWC V1.12 B30,2013-01-31 12:24:00,
2013-01-31 05:29:00,29.4,16.1,29.53,North,-999,0.0,0.0,57,0.00,,,0.00,LWC V1.12 B30,2013-01-31 12:29:00,
2013-01-31 05:34:00,29.4,16.1,29.53,North,-999,0.0,0.0,57,0.00,,,0.00,LWC V1.12 B30,2013-01-31 12:34:00,
2013-01-31 05:39:00,29.3,16.0,29.53,North,-999,0.0,0.0,57,0.00,,,0.00,LWC V1.12 B30,2013-01-31 12:39:00,
2013-01-31 05:44:00,29.3,16.0,29.53,North,-999,0.0,0.0,57,0.00,,,0.00,LWC V1.12 B30,2013-01-31 12:44:00,
2013-01-31 05:49:00,29.2,15.9,29.53,North,-999,0.0,0.0,57,0.00,,,0.00,LWC V1.12 B30,2013-01-31 12:49:00,
2013-01-31 05:54:00,29.1,16.2,29.53,North,-999,0.0,0.0,58,0.00,,,0.00,LWC V1.12 B30,2013-01-31 12:54:00,
2013-01-31 05:59:00,29.0,15.7,29.53,North,-999,0.0,0.0,57,0.00,,,0.00,LWC V1.12 B30,2013-01-31 12:59:00,
2013-01-31 06:04:00,28.9,15.6,29.53,North,-999,0.0,0.0,57,0.00,,,0.00,LWC V1.12 B30,2013-01-31 13:04:00,
2013-01-31 06:09:00,28.9,16.0,29.53,North,-999,0.0,0.0,58,0.00,,,0.00,LWC V1.12 B30,2013-01-31 13:09:00,
2013-01-31 06:14:00,28.9,16.0,29.53,North,-999,0.0,0.0,58,0.00,,,0.00,LWC V1.12 B30,2013-01-31 13:14:00,
2013-01-31 06:19:00,28.7,15.4,29.53,North,-999,0.0,0.0,57,0.00,,,0.00,LWC V1.12 B30,2013-01-31 13:19:00,
2013-01-31 06:24:00,28.7,15.8,29.53,North,-999,0.0,0.0,58,0.00,,,0.00,LWC V1.12 B30,2013-01-31 13:24:00,
2013-01-31 06:29:00,28.6,15.7,29.53,North,-999,0.0,0.0,58,0.00,,,0.00,LWC V1.12 B30,2013-01-31 13:29:00,
2013-01-31 06:34:00,28.5,15.6,29.53,North,-999,0.0,0.0,58,0.00,,,0.00,LWC V1.12 B30,2013-01-31 13:34:00,
2013-01-31 06:39:00,28.3,15.8,29.53,North,-999,0.0,0.0,59,0.00,,,0.00,LWC V1.12 B30,2013-01-31 13:39:00,
2013-01-31 06:44:00,28.2,15.7,29.53,North,-999,0.0,0.0,59,0.00,,,0.00,LWC V1.12 B30,2013-01-31 13:44:00,
2013-01-31 06:49:00,28.1,15.6,29.53,North,-999,0.0,0.0,59,0.00,,,0.00,LWC V1.12 B30,2013-01-31 13:49:00,
2013-01-31 06:54:00,28.0,15.5,29.53,North,-999,0.0,0.0,59,0.00,,,0.00,LWC V1.12 B30,2013-01-31 13:54:00,
2013-01-31 06:59:00,27.9,15.8,29.53,North,-999,0.0,0.0,60,0.00,,,0.00,LWC V1.12 B30,2013-01-31 13:59:00,
2013-01-31 07:04:00,28.0,15.9,29.53,North,-999,0.0,0.0,60,0.00,,,0.00,LWC V1.12 B30,2013-01-31 14:04:00,
2013-01-31 07:09:00,28.0,15.9,29.53,North,-999,0.0,0.0,60,0.00,,,0.00,LWC V1.12 B30,2013-01-31 14:09:00,
2013-01-31 07:14:00,28.0,15.9,29.53,North,-999,0.0,0.0,60,0.00,,,0.00,LWC V1.12 B30,2013-01-31 14:14:00,
2013-01-31 07:19:00,28.0,15.9,29.53,North,-999,0.0,0.0,60,0.00,,,0.00,LWC V1.12 B30,2013-01-31 14:19:00,
2013-01-31 07:24:00,28.0,15.9,29.53,North,-999,0.0,0.0,60,0.00,,,0.00,LWC V1.12 B30,2013-01-31 14:24:00,
2013-01-31 07:29:00,28.0,16.3,29.53,North,-999,0.0,0.0,61,0.00,,,0.00,LWC V1.12 B30,2013-01-31 14:29:00,
2013-01-31 07:34:00,28.1,16.4,29.53,North,-999,0.0,0.0,61,0.00,,,0.00,LWC V1.12 B30,2013-01-31 14:34:00,
2013-01-31 07:39:00,28.4,16.7,29.53,North,-999,0.0,0.0,61,0.00,,,0.00,LWC V1.12 B30,2013-01-31 14:39:00,
2013-01-31 07:44:00,28.7,16.6,29.53,North,-999,0.0,0.0,60,0.00,,,0.00,LWC V1.12 B30,2013-01-31 14:44:00,
2013-01-31 07:49:00,29.0,17.3,29.53,North,-999,0.0,0.0,61,0.00,,,0.00,LWC V1.12 B30,2013-01-31 14:49:00,
2013-01-31 07:54:00,29.4,17.3,29.53,North,-999,0.0,0.0,60,0.00,,,0.00,LWC V1.12 B30,2013-01-31 14:54:00,
2013-01-31 07:59:00,29.9,17.7,29.53,North,-999,0.0,0.0,60,0.00,,,0.00,LWC V1.12 B30,2013-01-31 14:59:00,
2013-01-31 08:04:00,30.1,17.9,29.53,North,-999,0.0,0.0,60,0.00,,,0.00,LWC V1.12 B30,2013-01-31 15:04:00,
2013-01-31 08:09:00,30.5,18.3,29.53,North,-999,0.0,0.0,60,0.00,,,0.00,LWC V1.12 B30,2013-01-31 15:09:00,
2013-01-31 08:14:00,30.9,18.7,29.53,North,-999,0.0,0.0,60,0.00,,,0.00,LWC V1.12 B30,2013-01-31 15:14:00,
2013-01-31 08:19:00,31.2,19.0,29.53,North,-999,0.0,0.0,60,0.00,,,0.00,LWC V1.12 B30,2013-01-31 15:19:00,
2013-01-31 08:24:00,31.7,19.0,29.53,North,-999,0.0,0.0,59,0.00,,,0.00,LWC V1.12 B30,2013-01-31 15:24:00,
2013-01-31 08:29:00,32.1,19.4,29.53,North,-999,0.0,0.0,59,0.00,,,0.00,LWC V1.12 B30,2013-01-31 15:29:00,
2013-01-31 08:34:00,32.5,19.8,29.53,North,-999,0.0,0.0,59,0.00,,,0.00,LWC V1.12 B30,2013-01-31 15:34:00,
2013-01-31 08:39:00,33.0,19.9,29.53,North,-999,0.0,0.0,58,0.00,,,0.00,LWC V1.12 B30,2013-01-31 15:39:00,
2013-01-31 08:44:00,33.3,20.1,29.53,North,-999,0.0,0.0,58,0.00,,,0.00,LWC V1.12 B30,2013-01-31 15:44:00,
2013-01-31 08:49:00,33.5,20.3,29.53,North,-999,0.0,0.0,58,0.00,,,0.00,LWC V1.12 B30,2013-01-31 15:49:00,
2013-01-31 08:54:00,33.9,20.7,29.53,North,-999,0.0,0.0,58,0.00,,,0.00,LWC V1.12 B30,2013-01-31 15:54:00,
2013-01-31 08:59:00,34.2,20.6,29.53,North,-999,0.0,0.0,57,0.00,,,0.00,LWC V1.12 B30,2013-01-31 15:59:00,
2013-01-31 09:04:00,34.4,20.8,29.53,North,-999,0.0,0.0,57,0.00,,,0.00,LWC V1.12 B30,2013-01-31 16:04:00,
2013-01-31 09:09:00,34.6,21.0,29.53,North,-999,0.0,0.0,57,0.00,,,0.00,LWC V1.12 B30,2013-01-31 16:09:00,
2013-01-31 09:14:00,34.8,20.7,29.53,North,-999,0.0,0.0,56,0.00,,,0.00,LWC V1.12 B30,2013-01-31 16:14:00,
2013-01-31 09:19:00,35.1,21.0,29.53,North,-999,0.0,0.0,56,0.00,,,0.00,LWC V1.12 B30,2013-01-31 16:19:00,
2013-01-31 09:24:00,35.3,21.2,29.53,North,-999,0.0,0.0,56,0.00,,,0.00,LWC V1.12 B30,2013-01-31 16:24:00,
2013-01-31 09:29:00,35.5,21.0,29.53,North,-999,0.0,0.0,55,0.00,,,0.00,LWC V1.12 B30,2013-01-31 16:29:00,
2013-01-31 09:34:00,35.8,21.2,29.53,North,-999,0.0,0.0,55,0.00,,,0.00,LWC V1.12 B30,2013-01-31 16:34:00,
2013-01-31 09:39:00,36.1,21.5,29.53,North,-999,0.0,0.0,55,0.00,,,0.00,LWC V1.12 B30,2013-01-31 16:39:00,
2013-01-31 09:44:00,36.3,21.3,29.53,North,-999,0.0,0.0,54,0.00,,,0.00,LWC V1.12 B30,2013-01-31 16:44:00,
2013-01-31 09:49:00,36.5,21.5,29.53,North,-999,0.0,0.0,54,0.00,,,0.00,LWC V1.12 B30,2013-01-31 16:49:00,
2013-01-31 09:54:00,36.7,21.6,29.53,North,-999,0.0,0.0,54,0.00,,,0.00,LWC V1.12 B30,2013-01-31 16:54:00,
2013-01-31 09:59:00,36.9,21.4,29.53,North,-999,0.0,0.0,53,0.00,,,0.00,LWC V1.12 B30,2013-01-31 16:59:00,
2013-01-31 10:04:00,37.2,21.2,29.53,North,-999,0.0,0.0,52,0.00,,,0.00,LWC V1.12 B30,2013-01-31 17:04:00,
2013-01-31 10:09:00,37.4,21.4,29.53,North,-999,0.0,0.0,52,0.00,,,0.00,LWC V1.12 B30,2013-01-31 17:09:00,
2013-01-31 10:14:00,37.7,21.7,29.53,North,-999,0.0,0.0,52,0.00,,,0.00,LWC V1.12 B30,2013-01-31 17:14:00,
2013-01-31 10:19:00,37.9,21.9,29.53,North,-999,0.0,0.0,52,0.00,,,0.00,LWC V1.12 B30,2013-01-31 17:19:00,
2013-01-31 10:24:00,38.2,21.7,29.53,North,-999,0.0,0.0,51,0.00,,,0.00,LWC V1.12 B30,2013-01-31 17:24:00,
2013-01-31 10:29:00,38.5,22.0,29.53,North,-999,0.0,0.0,51,0.00,,,0.00,LWC V1.12 B30,2013-01-31 17:29:00,
2013-01-31 10:34:00,38.7,22.1,29.53,North,-999,0.0,0.0,51,0.00,,,0.00,LWC V1.12 B30,2013-01-31 17:34:00,
2013-01-31 10:39:00,38.9,21.9,29.53,North,-999,0.0,0.0,50,0.00,,,0.00,LWC V1.12 B30,2013-01-31 17:39:00,
2013-01-31 10:44:00,39.1,22.0,29.53,North,-999,0.0,0.0,50,0.00,,,0.00,LWC V1.12 B30,2013-01-31 17:44:00,
2013-01-31 10:49:00,39.4,22.3,29.53,North,-999,0.0,0.0,50,0.00,,,0.00,LWC V1.12 B30,2013-01-31 17:49:00,
2013-01-31 10:54:00,39.7,22.1,29.53,North,-999,0.0,0.0,49,0.00,,,0.00,LWC V1.12 B30,2013-01-31 17:54:00,
2013-01-31 10:59:00,39.9,22.3,29.53,North,-999,0.0,0.0,49,0.00,,,0.00,LWC V1.12 B30,2013-01-31 17:59:00,
2013-01-31 11:04:00,40.2,22.6,29.53,North,-999,0.0,0.0,49,0.00,,,0.00,LWC V1.12 B30,2013-01-31 18:04:00,
2013-01-31 11:09:00,40.6,22.5,29.53,North,-999,0.0,0.0,48,0.00,,,0.00,LWC V1.12 B30,2013-01-31 18:09:00,
2013-01-31 11:14:00,40.8,22.6,29.53,North,-999,0.0,0.0,48,0.00,,,0.00,LWC V1.12 B30,2013-01-31 18:14:00,
2013-01-31 11:19:00,41.1,22.9,29.53,North,-999,0.0,0.0,48,0.00,,,0.00,LWC V1.12 B30,2013-01-31 18:19:00,
2013-01-31 11:24:00,41.3,23.1,29.53,North,-999,0.0,0.0,48,0.00,,,0.00,LWC V1.12 B30,2013-01-31 18:24:00,
2013-01-31 11:29:00,41.4,22.7,29.53,North,-999,0.0,0.0,47,0.00,,,0.00,LWC V1.12 B30,2013-01-31 18:29:00,
2013-01-31 11:34:00,41.6,23.4,29.53,North,-999,0.0,0.0,48,0.00,,,0.00,LWC V1.12 B30,2013-01-31 18:34:00,
2013-01-31 11:39:00,41.9,23.2,29.53,North,-999,0.0,0.0,47,0.00,,,0.00,LWC V1.12 B30,2013-01-31 18:39:00,
2013-01-31 11:44:00,42.1,22.8,29.53,North,-999,0.0,0.0,46,0.00,,,0.00,LWC V1.12 B30,2013-01-31 18:44:00,
2013-01-31 11:49:00,42.5,22.7,29.53,North,-999,0.0,0.0,45,0.00,,,0.00,LWC V1.12 B30,2013-01-31 18:49:00,
2013-01-31 11:54:00,42.7,22.3,29.53,North,-999,0.0,0.0,44,0.00,,,0.00,LWC V1.12 B30,2013-01-31 18:54:00,
2013-01-31 11:59:00,43.1,22.7,29.53,North,-999,0.0,0.0,44,0.00,,,0.00,LWC V1.12 B30,2013-01-31 18:59:00,
2013-01-31 12:04:00,43.2,21.7,29.53,North,-999,0.0,0.0,42,0.00,,,0.00,LWC V1.12 B30,2013-01-31 19:04:00,
2013-01-31 12:09:00,43.5,21.4,29.53,North,-999,0.0,0.0,41,0.00,,,0.00,LWC V1.12 B30,2013-01-31 19:09:00,
2013-01-31 12:14:00,43.7,21.6,29.53,North,-999,0.0,0.0,41,0.00,,,0.00,LWC V1.12 B30,2013-01-31 19:14:00,
2013-01-31 12:19:00,44.0,21.8,29.53,North,-999,0.0,0.0,41,0.00,,,0.00,LWC V1.12 B30,2013-01-31 19:19:00,
2013-01-31 12:24:00,44.1,20.7,29.53,North,-999,0.0,0.0,39,0.00,,,0.00,LWC V1.12 B30,2013-01-31 19:24:00,
2013-01-31 12:29:00,44.2,20.8,29.53,North,-999,0.0,0.0,39,0.00,,,0.00,LWC V1.12 B30,2013-01-31 19:29:00,
2013-01-31 12:34:00,44.3,20.9,29.53,North,-999,0.0,0.0,39,0.00,,,0.00,LWC V1.12 B30,2013-01-31 19:34:00,
2013-01-31 12:39:00,44.6,20.6,29.53,North,-999,0.0,0.0,38,0.00,,,0.00,LWC V1.12 B30,2013-01-31 19:39:00,
2013-01-31 12:44:00,44.9,20.8,29.53,North,-999,0.0,0.0,38,0.00,,,0.00,LWC V1.12 B30,2013-01-31 19:44:00,
2013-01-31 12:49:00,45.1,21.0,29.53,North,-999,0.0,0.0,38,0.00,,,0.00,LWC V1.12 B30,2013-01-31 19:49:00,
2013-01-31 12:54:00,45.1,20.4,29.53,North,-999,0.0,0.0,37,0.00,,,0.00,LWC V1.12 B30,2013-01-31 19:54:00,
2013-01-31 12:59:00,45.2,20.5,29.53,North,-999,0.0,0.0,37,0.00,,,0.00,LWC V1.12 B30,2013-01-31 19:59:00,
2013-01-31 13:04:00,45.3,20.6,29.53,North,-999,0.0,0.0,37,0.00,,,0.00,LWC V1.12 B30,2013-01-31 20:04:00,
2013-01-31 13:09:00,45.4,20.0,29.53,North,-999,0.0,0.0,36,0.00,,,0.00,LWC V1.12 B30,2013-01-31 20:09:00,
2013-01-31 13:14:00,45.6,20.2,29.53,North,-999,0.0,0.0,36,0.00,,,0.00,LWC V1.12 B30,2013-01-31 20:14:00,
2013-01-31 13:19:00,45.8,20.4,29.53,North,-999,0.0,0.0,36,0.00,,,0.00,LWC V1.12 B30,2013-01-31 20:19:00,
2013-01-31 13:24:00,45.9,20.5,29.53,North,-999,0.0,0.0,36,0.00,,,0.00,LWC V1.12 B30,2013-01-31 20:24:00,
2013-01-31 13:29:00,46.1,20.6,29.53,North,-999,0.0,0.0,36,0.00,,,0.00,LWC V1.12 B30,2013-01-31 20:29:00,
2013-01-31 13:34:00,46.1,20.6,29.53,North,-999,0.0,0.0,36,0.00,,,0.00,LWC V1.12 B30,2013-01-31 20:34:00,
2013-01-31 13:39:00,46.3,20.2,29.53,North,-999,0.0,0.0,35,0.00,,,0.00,LWC V1.12 B30,2013-01-31 20:39:00,
2013-01-31 13:44:00,46.4,19.6,29.53,North,-999,0.0,0.0,34,0.00,,,0.00,LWC V1.12 B30,2013-01-31 20:44:00,
2013-01-31 13:49:00,46.5,19.0,29.53,North,-999,0.0,0.0,33,0.00,,,0.00,LWC V1.12 B30,2013-01-31 20:49:00,
2013-01-31 13:54:00,46.6,19.1,29.53,North,-999,0.0,0.0,33,0.00,,,0.00,LWC V1.12 B30,2013-01-31 20:54:00,
2013-01-31 13:59:00,46.8,19.2,29.53,North,-999,0.0,0.0,33,0.00,,,0.00,LWC V1.12 B30,2013-01-31 20:59:00,
2013-01-31 14:04:00,46.9,19.3,29.53,North,-999,0.0,0.0,33,0.00,,,0.00,LWC V1.12 B30,2013-01-31 21:04:00,
2013-01-31 14:09:00,46.9,19.3,29.53,North,-999,0.0,0.0,33,0.00,,,0.00,LWC V1.12 B30,2013-01-31 21:09:00,
2013-01-31 14:14:00,47.1,19.5,29.53,North,-999,0.0,0.0,33,0.00,,,0.00,LWC V1.12 B30,2013-01-31 21:14:00,
2013-01-31 14:19:00,47.2,18.9,29.53,North,-999,0.0,0.0,32,0.00,,,0.00,LWC V1.12 B30,2013-01-31 21:19:00,
2013-01-31 14:24:00,47.3,19.0,29.53,North,-999,0.0,0.0,32,0.00,,,0.00,LWC V1.12 B30,2013-01-31 21:24:00,
2013-01-31 14:29:00,47.3,19.0,29.53,North,-999,0.0,0.0,32,0.00,,,0.00,LWC V1.12 B30,2013-01-31 21:29:00,
2013-01-31 14:34:00,47.4,18.3,29.53,North,-999,0.0,0.0,31,0.00,,,0.00,LWC V1.12 B30,2013-01-31 21:34:00,
2013-01-31 14:39:00,47.5,18.4,29.53,North,-999,0.0,0.0,31,0.00,,,0.00,LWC V1.12 B30,2013-01-31 21:39:00,
2013-01-31 14:44:00,47.4,19.0,29.53,North,-999,0.0,0.0,32,0.00,,,0.00,LWC V1.12 B30,2013-01-31 21:44:00,
2013-01-31 14:49:00,47.5,19.1,29.53,North,-999,0.0,0.0,32,0.00,,,0.00,LWC V1.12 B30,2013-01-31 21:49:00,
2013-01-31 14:54:00,47.5,18.4,29.53,North,-999,0.0,0.0,31,0.00,,,0.00,LWC V1.12 B30,2013-01-31 21:54:00,
2013-01-31 14:59:00,47.7,19.3,29.53,North,-999,0.0,0.0,32,0.00,,,0.00,LWC V1.12 B30,2013-01-31 21:59:00,
2013-01-31 15:04:00,47.6,19.2,29.53,North,-999,0.0,0.0,32,0.00,,,0.00,LWC V1.12 B30,2013-01-31 22:04:00,
2013-01-31 15:09:00,47.6,19.2,29.53,North,-999,0.0,0.0,32,0.00,,,0.00,LWC V1.12 B30,2013-01-31 22:09:00,
2013-01-31 15:14:00,47.6,18.5,29.53,North,-999,0.0,0.0,31,0.00,,,0.00,LWC V1.12 B30,2013-01-31 22:14:00,
2013-01-31 15:19:00,47.6,19.2,29.53,North,-999,0.0,0.0,32,0.00,,,0.00,LWC V1.12 B30,2013-01-31 22:19:00,
2013-01-31 15:24:00,47.6,18.5,29.53,North,-999,0.0,0.0,31,0.00,,,0.00,LWC V1.12 B30,2013-01-31 22:24:00,
2013-01-31 15:29:00,47.6,18.5,29.53,North,-999,0.0,0.0,31,0.00,,,0.00,LWC V1.12 B30,2013-01-31 22:29:00,
2013-01-31 15:34:00,47.6,18.5,29.53,North,-999,0.0,0.0,31,0.00,,,0.00,LWC V1.12 B30,2013-01-31 22:34:00,
2013-01-31 15:39:00,47.4,18.3,29.53,North,-999,0.0,0.0,31,0.00,,,0.00,LWC V1.12 B30,2013-01-31 22:39:00,
2013-01-31 15:44:00,47.4,18.3,29.53,North,-999,0.0,0.0,31,0.00,,,0.00,LWC V1.12 B30,2013-01-31 22:44:00,
2013-01-31 15:49:00,47.4,18.3,29.53,North,-999,0.0,0.0,31,0.00,,,0.00,LWC V1.12 B30,2013-01-31 22:49:00,
2013-01-31 15:54:00,47.5,17.6,29.53,North,-999,0.0,0.0,30,0.00,,,0.00,LWC V1.12 B30,2013-01-31 22:54:00,
2013-01-31 15:59:00,47.4,17.5,29.53,North,-999,0.0,0.0,30,0.00,,,0.00,LWC V1.12 B30,2013-01-31 22:59:00,
2013-01-31 16:04:00,47.4,18.3,29.53,North,-999,0.0,0.0,31,0.00,,,0.00,LWC V1.12 B30,2013-01-31 23:04:00,
2013-01-31 16:09:00,47.4,17.5,29.53,North,-999,0.0,0.0,30,0.00,,,0.00,LWC V1.12 B30,2013-01-31 23:09:00,
2013-01-31 16:14:00,47.3,17.5,29.53,North,-999,0.0,0.0,30,0.00,,,0.00,LWC V1.12 B30,2013-01-31 23:14:00,
2013-01-31 16:19:00,47.2,18.1,29.53,North,-999,0.0,0.0,31,0.00,,,0.00,LWC V1.12 B30,2013-01-31 23:19:00,
2013-01-31 16:24:00,47.1,18.0,29.53,North,-999,0.0,0.0,31,0.00,,,0.00,LWC V1.12 B30,2013-01-31 23:24:00,
2013-01-31 16:29:00,47.1,18.0,29.53,North,-999,0.0,0.0,31,0.00,,,0.00,LWC V1.12 B30,2013-01-31 23:29:00,
2013-01-31 16:34:00,47.1,18.0,29.53,North,-999,0.0,0.0,31,0.00,,,0.00,LWC V1.12 B30,2013-01-31 23:34:00,
2013-01-31 16:39:00,47.0,18.0,29.53,North,-999,0.0,0.0,31,0.00,,,0.00,LWC V1.12 B30,2013-01-31 23:39:00,
2013-01-31 16:44:00,46.9,17.9,29.53,North,-999,0.0,0.0,31,0.00,,,0.00,LWC V1.12 B30,2013-01-31 23:44:00,
2013-01-31 16:49:00,46.8,17.8,29.53,North,-999,0.0,0.0,31,0.00,,,0.00,LWC V1.12 B30,2013-01-31 23:49:00,
2013-01-31 16:54:00,46.7,18.4,29.53,North,-999,0.0,0.0,32,0.00,,,0.00,LWC V1.12 B30,2013-01-31 23:54:00,
2013-01-31 16:59:00,46.5,18.3,29.53,North,-999,0.0,0.0,32,0.00,,,0.00,LWC V1.12 B30,2013-01-31 23:59:00,
2013-01-31 17:04:00,46.4,18.2,29.53,North,-999,0.0,0.0,32,0.00,,,0.00,LWC V1.12 B30,2013-02-01 00:04:00,
2013-01-31 17:09:00,46.3,18.8,29.53,North,-999,0.0,0.0,33,0.00,,,0.00,LWC V1.12 B30,2013-02-01 00:09:00,
2013-01-31 17:14:00,46.1,19.3,29.53,North,-999,0.0,0.0,34,0.00,,,0.00,LWC V1.12 B30,2013-02-01 00:14:00,
2013-01-31 17:19:00,46.0,19.2,29.53,North,-999,0.0,0.0,34,0.00,,,0.00,LWC V1.12 B30,2013-02-01 00:19:00,
2013-01-31 17:24:00,45.9,19.1,29.53,North,-999,0.0,0.0,34,0.00,,,0.00,LWC V1.12 B30,2013-02-01 00:24:00,
2013-01-31 17:29:00,45.7,19.6,29.53,North,-999,0.0,0.0,35,0.00,,,0.00,LWC V1.12 B30,2013-02-01 00:29:00,
2013-01-31 17:34:00,45.5,19.5,29.53,North,-999,0.0,0.0,35,0.00,,,0.00,LWC V1.12 B30,2013-02-01 00:34:00,
2013-01-31 17:39:00,45.3,19.3,29.53,North,-999,0.0,0.0,35,0.00,,,0.00,LWC V1.12 B30,2013-02-01 00:39:00,
2013-01-31 17:44:00,45.1,19.8,29.53,North,-999,0.0,0.0,36,0.00,,,0.00,LWC V1.12 B30,2013-02-01 00:44:00,
2013-01-31 17:49:00,45.0,19.7,29.53,North,-999,0.0,0.0,36,0.00,,,0.00,LWC V1.12 B30,2013-02-01 00:49:00,
2013-01-31 17:54:00,44.7,20.0,29.53,North,-999,0.0,0.0,37,0.00,,,0.00,LWC V1.12 B30,2013-02-01 00:54:00,
2013-01-31 17:59:00,44.6,20.0,29.53,North,-999,0.0,0.0,37,0.00,,,0.00,LWC V1.12 B30,2013-02-01 00:59:00,
2013-01-31 18:04:00,44.6,20.0,29.53,North,-999,0.0,0.0,37,0.00,,,0.00,LWC V1.12 B30,2013-02-01 01:04:00,
2013-01-31 18:09:00,44.7,19.4,29.53,North,-999,0.0,0.0,36,0.00,,,0.00,LWC V1.12 B30,2013-02-01 01:09:00,
2013-01-31 18:14:00,44.6,19.3,29.53,North,-999,0.0,0.0,36,0.00,,,0.00,LWC V1.12 B30,2013-02-01 01:14:00,
2013-01-31 18:19:00,44.5,19.9,29.53,North,-999,0.0,0.0,37,0.00,,,0.00,LWC V1.12 B30,2013-02-01 01:19:00,
2013-01-31 18:24:00,44.4,19.8,29.53,North,-999,0.0,0.0,37,0.00,,,0.00,LWC V1.12 B30,2013-02-01 01:24:00,
2013-01-31 18:30:00,44.3,20.3,29.53,North,-999,0.0,0.0,38,0.00,,,0.00,LWC V1.12 B30,2013-02-01 01:30:00,
2013-01-31 18:35:00,44.2,20.2,29.53,North,-999,0.0,0.0,38,0.00,,,0.00,LWC V1.12 B30,2013-02-01 01:35:00,
2013-01-31 18:40:00,44.2,20.2,29.53,North,-999,0.0,0.0,38,0.00,,,0.00,LWC V1.12 B30,2013-02-01 01:40:00,
2013-01-31 18:45:00,44.1,20.1,29.53,North,-999,0.0,0.0,38,0.00,,,0.00,LWC V1.12 B30,2013-02-01 01:45:00,
2013-01-31 18:50:00,44.1,20.1,29.53,North,-999,0.0,0.0,38,0.00,,,0.00,LWC V1.12 B30,2013-02-01 01:50:00,
2013-01-31 18:55:00,44.0,20.0,29.53,North,-999,0.0,0.0,38,0.00,,,0.00,LWC V1.12 B30,2013-02-01 01:55:00,
2013-01-31 19:00:00,44.0,20.0,29.53,North,-999,0.0,0.0,38,0.00,,,0.00,LWC V1.12 B30,2013-02-01 02:00:00,
2013-01-31 19:05:00,43.9,20.0,29.53,North,-999,0.0,0.0,38,0.00,,,0.00,LWC V1.12 B30,2013-02-01 02:05:00,
2013-01-31 19:10:00,43.7,20.4,29.53,North,-999,0.0,0.0,39,0.00,,,0.00,LWC V1.12 B30,2013-02-01 02:10:00,
2013-01-31 19:15:00,43.7,20.4,29.53,North,-999,0.0,0.0,39,0.00,,,0.00,LWC V1.12 B30,2013-02-01 02:15:00,
2013-01-31 19:20:00,43.6,20.3,29.53,North,-999,0.0,0.0,39,0.00,,,0.00,LWC V1.12 B30,2013-02-01 02:20:00,
2013-01-31 19:25:00,43.5,20.8,29.53,North,-999,0.0,0.0,40,0.00,,,0.00,LWC V1.12 B30,2013-02-01 02:25:00,
2013-01-31 19:30:00,43.4,20.7,29.53,North,-999,0.0,0.0,40,0.00,,,0.00,LWC V1.12 B30,2013-02-01 02:30:00,
2013-01-31 19:35:00,43.3,21.2,29.53,North,-999,0.0,0.0,41,0.00,,,0.00,LWC V1.12 B30,2013-02-01 02:35:00,
2013-01-31 19:40:00,43.2,21.1,29.53,North,-999,0.0,0.0,41,0.00,,,0.00,LWC V1.12 B30,2013-02-01 02:40:00,
2013-01-31 19:45:00,43.2,21.1,29.53,North,-999,0.0,0.0,41,0.00,,,0.00,LWC V1.12 B30,2013-02-01 02:45:00,
2013-01-31 19:50:00,43.1,21.0,29.53,North,-999,0.0,0.0,41,0.00,,,0.00,LWC V1.12 B30,2013-02-01 02:50:00,
2013-01-31 19:55:00,43.1,21.6,29.53,North,-999,0.0,0.0,42,0.00,,,0.00,LWC V1.12 B30,2013-02-01 02:55:00,
2013-01-31 20:00:00,43.0,21.5,29.53,North,-999,0.0,0.0,42,0.00,,,0.00,LWC V1.12 B30,2013-02-01 03:00:00,
2013-01-31 20:05:00,42.9,21.4,29.53,North,-999,0.0,0.0,42,0.00,,,0.00,LWC V1.12 B30,2013-02-01 03:05:00,
2013-01-31 20:10:00,42.7,21.8,29.53,North,-999,0.0,0.0,43,0.00,,,0.00,LWC V1.12 B30,2013-02-01 03:10:00,
2013-01-31 20:15:00,42.7,21.8,29.53,North,-999,0.0,0.0,43,0.00,,,0.00,LWC V1.12 B30,2013-02-01 03:15:00,
2013-01-31 20:20:00,42.6,22.2,29.53,North,-999,0.0,0.0,44,0.00,,,0.00,LWC V1.12 B30,2013-02-01 03:20:00,
2013-01-31 20:25:00,42.5,22.1,29.53,North,-999,0.0,0.0,44,0.00,,,0.00,LWC V1.12 B30,2013-02-01 03:25:00,
2013-01-31 20:30:00,42.5,22.7,29.53,North,-999,0.0,0.0,45,0.00,,,0.00,LWC V1.12 B30,2013-02-01 03:30:00,
2013-01-31 20:35:00,42.4,22.6,29.53,North,-999,0.0,0.0,45,0.00,,,0.00,LWC V1.12 B30,2013-02-01 03:35:00,
2013-01-31 20:40:00,42.4,22.6,29.53,North,-999,0.0,0.0,45,0.00,,,0.00,LWC V1.12 B30,2013-02-01 03:40:00,
2013-01-31 20:45:00,42.3,22.5,29.53,North,-999,0.0,0.0,45,0.00,,,0.00,LWC V1.12 B30,2013-02-01 03:45:00,
2013-01-31 20:50:00,42.3,23.0,29.53,North,-999,0.0,0.0,46,0.00,,,0.00,LWC V1.12 B30,2013-02-01 03:50:00,
2013-01-31 20:55:00,42.2,22.9,29.53,North,-999,0.0,0.0,46,0.00,,,0.00,LWC V1.12 B30,2013-02-01 03:55:00,
2013-01-31 21:00:00,42.1,22.8,29.53,North,-999,0.0,0.0,46,0.00,,,0.00,LWC V1.12 B30,2013-02-01 04:00:00,
2013-01-31 21:05:00,42.0,22.7,29.53,North,-999,0.0,0.0,46,0.00,,,0.00,LWC V1.12 B30,2013-02-01 04:05:00,
2013-01-31 21:10:00,41.9,23.2,29.53,North,-999,0.0,0.0,47,0.00,,,0.00,LWC V1.12 B30,2013-02-01 04:10:00,
2013-01-31 21:15:00,41.8,23.1,29.53,North,-999,0.0,0.0,47,0.00,,,0.00,LWC V1.12 B30,2013-02-01 04:15:00,
2013-01-31 21:20:00,41.7,23.5,29.53,North,-999,0.0,0.0,48,0.00,,,0.00,LWC V1.12 B30,2013-02-01 04:20:00,
2013-01-31 21:25:00,41.6,23.4,29.53,North,-999,0.0,0.0,48,0.00,,,0.00,LWC V1.12 B30,2013-02-01 04:25:00,
2013-01-31 21:30:00,41.4,23.2,29.53,North,-999,0.0,0.0,48,0.00,,,0.00,LWC V1.12 B30,2013-02-01 04:30:00,
2013-01-31 21:35:00,41.3,23.6,29.53,North,-999,0.0,0.0,49,0.00,,,0.00,LWC V1.12 B30,2013-02-01 04:35:00,
2013-01-31 21:40:00,41.2,23.0,29.53,North,-999,0.0,0.0,48,0.00,,,0.00,LWC V1.12 B30,2013-02-01 04:40:00,
2013-01-31 21:45:00,41.0,23.3,29.53,North,-999,0.0,0.0,49,0.00,,,0.00,LWC V1.12 B30,2013-02-01 04:45:00,
2013-01-31 21:50:00,40.9,22.7,29.53,North,-999,0.0,0.0,48,0.00,,,0.00,LWC V1.12 B30,2013-02-01 04:50:00,
2013-01-31 21:55:00,40.8,23.1,29.53,North,-999,0.0,0.0,49,0.00,,,0.00,LWC V1.12 B30,2013-02-01 04:55:00,
2013-01-31 22:00:00,40.7,23.0,29.53,North,-999,0.0,0.0,49,0.00,,,0.00,LWC V1.12 B30,2013-02-01 05:00:00,
2013-01-31 22:02:00,40.6,23.0,29.53,North,-999,0.0,0.0,49,0.00,,,0.00,LWC V1.12 B30,2013-02-01 05:02:00,
2013-01-31 22:03:00,40.7,23.0,29.53,North,-999,0.0,0.0,49,0.00,,,0.00,LWC V1.12 B30,2013-02-01 05:03:00,
2013-01-31 22:05:00,40.6,23.4,29.53,North,-999,0.0,0.0,50,0.00,,,0.00,LWC V1.12 B30,2013-02-01 05:05:00,
2013-01-31 22:10:00,40.5,23.3,29.53,North,-999,0.0,0.0,50,0.00,,,0.00,LWC V1.12 B30,2013-02-01 05:10:00,
2013-01-31 22:15:00,40.4,23.2,29.53,North,-999,0.0,0.0,50,0.00,,,0.00,LWC V1.12 B30,2013-02-01 05:15:00,
2013-01-31 22:20:00,40.3,23.2,29.53,North,-999,0.0,0.0,50,0.00,,,0.00,LWC V1.12 B30,2013-02-01 05:20:00,
2013-01-31 22:25:00,40.2,22.6,29.53,North,-999,0.0,0.0,49,0.00,,,0.00,LWC V1.12 B30,2013-02-01 05:25:00,
2013-01-31 22:30:00,40.0,22.4,29.53,North,-999,0.0,0.0,49,0.00,,,0.00,LWC V1.12 B30,2013-02-01 05:30:00,
2013-01-31 22:35:00,39.9,22.8,29.53,North,-999,0.0,0.0,50,0.00,,,0.00,LWC V1.12 B30,2013-02-01 05:35:00,
2013-01-31 22:40:00,39.8,22.7,29.53,North,-999,0.0,0.0,50,0.00,,,0.00,LWC V1.12 B30,2013-02-01 05:40:00,
2013-01-31 22:45:00,39.5,21.9,29.53,North,-999,0.0,0.0,49,0.00,,,0.00,LWC V1.12 B30,2013-02-01 05:45:00,
2013-01-31 22:50:00,39.4,21.8,29.53,North,-999,0.0,0.0,49,0.00,,,0.00,LWC V1.12 B30,2013-02-01 05:50:00,
2013-01-31 22:55:00,39.3,22.2,29.53,North,-999,0.0,0.0,50,0.00,,,0.00,LWC V1.12 B30,2013-02-01 05:55:00,
2013-01-31 23:00:00,39.2,22.1,29.53,North,-999,0.0,0.0,50,0.00,,,0.00,LWC V1.12 B30,2013-02-01 06:00:00,
2013-01-31 23:05:00,39.1,22.0,29.53,North,-999,0.0,0.0,50,0.00,,,0.00,LWC V1.12 B30,2013-02-01 06:05:00,
2013-01-31 23:10:00,38.9,21.9,29.53,North,-999,0.0,0.0,50,0.00,,,0.00,LWC V1.12 B30,2013-02-01 06:10:00,
2013-01-31 23:15:00,38.8,21.8,29.53,North,-999,0.0,0.0,50,0.00,,,0.00,LWC V1.12 B30,2013-02-01 06:15:00,
2013-01-31 23:20:00,38.6,21.6,29.53,North,-999,0.0,0.0,50,0.00,,,0.00,LWC V1.12 B30,2013-02-01 06:20:00,
2013-01-31 23:25:00,38.5,22.0,29.53,North,-999,0.0,0.0,51,0.00,,,0.00,LWC V1.12 B30,2013-02-01 06:25:00,
2013-01-31 23:30:00,38.4,21.9,29.53,North,-999,0.0,0.0,51,0.00,,,0.00,LWC V1.12 B30,2013-02-01 06:30:00,